Lid_Strength_Index
-0 -0 2 7 11 11 15 13 10 10 10 6 6 8 9 8 9 12 4 2 1 1 -0 -1 -2 -2 -2 -2 -2 -2 -2 -2 -2 -2 -2 -2 -2 -2 -2 -1 -2 -2 -2 -2 -2 -1 -1 -1 -1
0 2 6 9 13 15 15 10 11 9 7 6 7 7 8 9 7 6 5 3 1 1 -0 -0 -2 -2 -2 -2 -2 -1 -1 -1 -1 -1 -1 -1 -1 -1 -1 -1 -1 -1 -1 -1 -1 -1 -1 -1 -1
2 4 9 10 13 14 13 10 9 8 6 7 8 8 7 8 7 7 5 3 1 1 -0 -1 -2 -2 -2 -1 -1 -1 -1 -1 -1 -1 -1 -0 -0 -0 -0 0 0 1 1 1 0 0 0 0 0
6 8 9 13 14 12 11 8 8 8 7 6 7 9 6 4 5 6 5 2 2 1 1 -1 -1 -1 -1 -1 -1 -1 -1 -0 -0 0 0 0 0 1 1 1 1 1 1 1 1 1 1 1 1
8 9 12 13 13 12 10 7 7 9 8 8 8 9 7 6 4 4 4 2 2 2 1 0 -1 -1 -1 -1 -1 -0 0 1 1 1 1 1 2 2 2 2 2 2 2 2 2 1 1 1 1
9 9 14 14 13 12 11 7 8 9 8 8 9 9 7 5 5 5 3 2 2 2 1 1 -1 -1 -0 -0 0 1 1 1 2 2 2 3 3 3 3 4 3 3 3 3 2 2 2 2 2
10 11 14 14 13 12 11 8 8 8 8 8 7 9 7 6 5 5 5 3 2 2 3 3 3 1 1 1 1 2 2 2 3 3 4 4 4 4 4 4 4 3 3 3 3 3 3 3 3
9 11 14 14 13 12 10 7 7 7 8 6 7 9 9 6 5 6 5 5 4 4 4 5 5 4 5 4 2 3 3 3 4 4 5 5 6 6 5 5 5 4 4 4 4 4 4 4 5
9 13 14 13 13 12 9 9 8 8 8 8 7 6 6 4 6 6 7 7 7 6 5 5 5 6 6 6 4 4 4 4 5 6 5 7 10 9 9 6 6 6 5 5 5 5 5 6 7
10 13 13 10 11 11 9 9 9 9 9 9 8 6 5 6 6 7 7 8 7 7 7 7 7 6 7 5 7 8 7 9 9 10 10 10 10 9 9 8 7 7 7 7 7 7 7 9 11
10 12 11 9 9 9 9 10 9 9 11 9 8 7 6 7 7 7 7 7 7 7 7 8 8 7 7 7 8 9 9 10 10 10 10 10 11 11 12 12 12 12 9 12 11 12 12 12 12
12 10 10 9 9 9 10 9 9 9 9 8 7 6 7 7 8 7 7 7 8 8 8 8 7 7 8 8 9 9 9 10 11 11 10 12 12 12 13 13 13 13 13 13 13 13 12 12 12
11 11 10 10 9 9 8 10 10 10 9 8 6 6 7 7 7 7 7 7 7 8 8 8 7 8 8 9 9 10 10 10 11 11 11 12 12 13 13 13 13 13 13 13 14 13 13 13 12
11 10 10 9 9 9 10 10 10 10 9 9 7 7 7 7 7 7 7 7 8 8 8 8 8 8 8 9 10 10 10 11 11 11 11 11 12 13 13 13 13 14 13 13 14 14 14 13 13
10 12 11 11 10 10 10 12 12 10 9 10 9 7 7 7 7 7 7 7 7 8 8 8 8 8 9 9 9 10 10 10 11 12 12 12 12 13 14 14 14 14 14 14 14 14 14 14 13
13 13 15 12 11 10 11 15 12 10 10 11 11 8 7 7 7 6 6 7 7 8 8 7 7 8 9 10 10 10 10 11 12 12 12 12 12 13 14 14 15 14 14 14 15 15 15 15 15
14 18 16 14 10 11 13 15 12 11 10 10 11 9 8 7 7 6 6 7 7 8 8 8 8 9 9 10 10 10 11 11 12 12 13 13 13 13 14 14 14 14 14 15 15 15 16 16 15
17 17 16 15 12 12 14 14 12 12 12 11 12 11 9 8 7 6 6 7 8 8 8 8 8 9 9 9 10 11 11 12 12 12 12 13 13 13 14 14 15 14 15 15 16 16 16 16 16
14 15 16 15 12 13 14 13 12 11 13 13 13 12 10 9 7 6 6 7 8 8 8 8 9 9 9 10 11 12 12 12 13 12 12 13 13 13 15 15 15 15 16 16 16 16 16 16 16
14 16 16 14 12 13 14 14 12 12 12 11 11 11 10 9 8 7 7 8 9 9 8 9 9 9 9 10 11 11 12 12 12 12 13 13 14 14 14 15 15 16 16 16 16 16 17 16 16
14 15 15 15 13 14 15 16 14 12 11 10 10 10 10 9 8 7 7 8 8 9 8 8 8 9 9 10 11 12 12 13 13 13 14 14 14 14 14 15 15 16 16 16 17 17 17 18 16
15 12 13 13 15 18 14 19 15 14 13 12 10 11 10 10 8 7 7 7 9 9 8 8 8 9 9 10 12 12 13 14 13 14 14 14 14 14 14 14 15 16 16 17 17 15 17 17 18
14 12 13 13 16 17 17 19 17 13 13 12 12 10 10 10 9 7 7 7 8 8 8 8 8 9 10 11 12 13 13 14 14 15 15 15 15 15 15 15 16 16 16 17 17 17 17 17 17
12 14 14 15 17 20 17 17 18 14 13 12 12 11 10 10 9 7 7 7 8 8 8 8 9 9 11 11 12 13 14 15 15 16 16 16 16 16 16 15 16 17 17 17 17 17 17 17 17
13 15 21 22 22 20 16 18 15 13 12 12 11 12 12 10 10 8 8 8 9 9 9 9 9 11 11 12 13 13 14 15 16 16 17 17 17 17 17 17 17 17 17 17 16 17 17 17 17
13 13 18 22 22 20 18 20 16 12 10 11 11 12 12 12 10 8 8 8 9 9 9 9 10 12 12 13 14 14 15 16 16 16 17 17 17 17 17 17 17 17 17 17 17 17 17 17 17
14 15 13 17 18 21 19 17 14 13 13 13 12 12 12 11 9 8 8 8 10 10 9 9 11 12 12 13 14 15 16 16 17 17 17 17 17 16 17 18 18 17 17 17 17 17 17 17 17
13 12 16 18 21 21 20 19 17 15 13 13 13 13 12 11 9 9 8 9 9 9 9 10 11 12 13 13 14 16 16 17 17 18 18 17 17 17 18 18 18 18 17 17 17 18 17 17 17
14 15 15 15 17 20 22 19 13 12 12 12 12 12 12 11 10 9 9 8 9 9 10 12 12 13 14 14 15 17 17 17 18 18 17 18 18 18 18 18 18 17 17 17 18 18 17 17 17
12 14 14 17 19 19 20 19 13 14 12 12 12 11 11 10 9 9 9 9 9 9 11 12 13 14 16 16 16 17 17 18 18 18 18 18 18 18 18 18 18 17 17 17 18 18 17 17 17